Home > Weather > El Aaiún > Past weeks

Weather for the Past 2 Weeks in El Aaiún, Western Sahara

Now
64 °F

Passing clouds.


Feels Like: 64 °F
Forecast: 63 / 70 °F
Wind: 20 mph from Northeast

Location: Laayoune/Hassan Isl

Current Time: Feb 14, 2016 at 3:52:21 AM

Latest Report: Feb 14, 2016 at 3:00 AM


Visibility: 5 mi

Pressure: 30.27 "Hg

Humidity: 64%

Dew point: 52 °F

Location of El AaiúnLocation

Historic Weather in El Aaiún — Graph

°F

El Aaiún Temperature Yesterday

Maximum temperature yesterday: 75 °F (at 2:00 PM)
Minimum temperature yesterday: 63 °F (at 1:00 AM)
Average temperature yesterday: 67 °F

High & Low Weather Summary for the Past Weeks

 TemperatureHumidityPressure
High86 °F (Feb 6, 2:00 PM)100% (Jan 30, 5:00 AM)30.45 "Hg (Jan 30, 5:00 AM)
Low-69 °F (Feb 3, 5:00 PM)11% (Feb 6, 5:00 PM)30.09 "Hg (Feb 5, 3:00 PM)
Average66 °F62%30.28 "Hg
* Reported Jan 30 2:00 AM — Feb 14 2:00 AM, El Aaiún, Weather by CustomWeather, © 2016

Note: Actual official high and low records may vary slightly from our data, if they occured in-between our weather recording intervals... More about our weather records

Advertising

El Aaiún Weather History for the Previous 24 Hours

 ConditionsComfort  
Time TempWeatherWind HumidityBarometerVisibility
2:00 AM
Sun, Feb 14
64 °FPassing clouds.21 mph68%30.27 "Hg5 mi
1:00 AM64 °FPassing clouds.23 mph73%30.27 "Hg4 mi
12:00 AM64 °FPassing clouds.21 mph78%30.24 "Hg4 mi
11:00 PM
Sat, Feb 13
64 °FPassing clouds.21 mph78%30.30 "Hg4 mi
10:00 PM63 °FPartly cloudy.18 mph88%30.30 "Hg4 mi
8:00 PM66 °FPassing clouds.22 mph73%30.24 "HgN/A
7:00 PM66 °FScattered clouds.23 mph73%30.24 "HgN/A
6:00 PM70 °FScattered clouds.23 mph60%30.21 "HgN/A
5:00 PM72 °FSunny.22 mph61%30.21 "Hg10 mi
4:00 PM73 °FScattered clouds.23 mph57%30.21 "HgN/A
3:00 PM73 °FScattered clouds.26 mph57%30.21 "HgN/A
2:00 PM75 °FPartly sunny.23 mph54%30.21 "HgN/A
1:00 PM73 °FPartly sunny.25 mph57%30.24 "Hg5 mi
12:00 PM72 °FPartly sunny.25 mph61%30.27 "Hg5 mi
11:00 AM72 °FPartly sunny.23 mph57%30.27 "Hg5 mi
10:00 AM68 °FPartly sunny.23 mph64%30.27 "Hg5 mi
9:00 AM66 °FPartly sunny.23 mph68%30.24 "Hg5 mi
8:00 AM64 °FOvercast.21 mph73%30.24 "HgN/A
7:00 AM64 °FPassing clouds.21 mph73%30.21 "Hg5 mi
6:00 AM63 °FPassing clouds.20 mph73%30.21 "Hg5 mi
5:00 AM63 °FPassing clouds.20 mph77%30.18 "Hg5 mi
4:00 AM63 °FPassing clouds.22 mph77%30.18 "Hg5 mi
3:00 AM64 °FPassing clouds.18 mph73%30.21 "Hg5 mi
Weather by CustomWeather, © 2016

See weather overviewHow to use our weather pages